This is the latest recevied weather packets stored in our database for station/object K4DXB. If no packets are shown the sender has not sent any weather packets the latest 1 day(s).
| Time | Temp. | Humidity | Pressure | Rain* | Wind** | Luminosity | Snow |
|---|---|---|---|---|---|---|---|
| 1836274131 | 15° C | 9% | - | 0 mm | 0 m/s | - | - |
| 1836273981 | 15.56° C | 9% | - | 0 mm | 0 m/s | - | - |
| 1778039451 | 18.89° C | 6% | - | 0 mm | 0.45 m/s, 197° | - | - |
| 1778038551 | 19.44° C | 6% | - | 0 mm | 0.45 m/s, 172° | - | - |
| 1778037651 | 19.44° C | 6% | - | 0 mm | 0 m/s | - | - |
| 1778036753 | 19.44° C | 6% | - | 0 mm | 0.89 m/s, 249° | - | - |
| 1778035852 | 20° C | 6% | - | 0 mm | 1.34 m/s, 192° | - | - |
| 1778034951 | 20.56° C | 5% | - | 0 mm | 0.45 m/s, 200° | - | - |
| 1778034052 | 20.56° C | 5% | - | 0 mm | 1.34 m/s, 150° | - | - |
| 1778033151 | 20.56° C | 5% | - | 0 mm | 1.34 m/s, 185° | - | - |
| 1778032251 | 20.56° C | 5% | - | 0 mm | 0.89 m/s, 206° | - | - |
| 1778031407 | 20.56° C | 5% | - | 0 mm | 0.45 m/s, 225° | - | - |
| 1778031354 | 20.56° C | 5% | - | 0 mm | 0.45 m/s, 225° | - | - |
| 1778030452 | 21.11° C | 5% | - | 0 mm | 0 m/s | - | - |
| 1778029552 | 21.11° C | 5% | - | 0 mm | 0.45 m/s, 99° | - | - |
| 1778028651 | 21.67° C | 5% | - | 0 mm | 0 m/s | - | - |
| 1778027752 | 22.22° C | 5% | - | 0 mm | 0.45 m/s, 247° | - | - |
| 1778026851 | 23.33° C | 4% | - | 0 mm | 1.34 m/s, 206° | - | - |
| 1778025951 | 24.44° C | 4% | - | 0 mm | 1.34 m/s, 225° | - | - |
| 1778025051 | 25° C | 3% | - | 0 mm | 0 m/s | - | - |
| 1778024152 | 25.56° C | 3% | - | 0 mm | 0.89 m/s, 161° | - | - |
| 1778023251 | 26.11° C | 3% | - | 0 mm | 0.89 m/s, 188° | - | - |
| 1778022352 | 27.22° C | 3% | - | 0 mm | 1.79 m/s, 171° | - | - |
| 1778020552 | 27.22° C | 3% | - | 0 mm | 2.24 m/s, 224° | - | - |
| 1778019651 | 28.33° C | 3% | - | 0 mm | 1.34 m/s, 191° | - | - |
* Rain latest hour (hover to see other rain measurements)
** Current wind speed in m/s (hover to see current wind gust speed)